Tracking 32932 objects as of 14-Jan-2026
HD Live streaming from Space Station
objects crossing your sky now

GALILEO 32 (137)

Track GALILEO 32 (137) now!
GALILEO 32 (137) is classified as:


NORAD ID: 61182
Int'l Code: 2024-167A
Perigee: 23,224.1 km
Apogee: 23,234.6 km
Inclination: 55.2 °
Period: 844.7 minutes
Semi major axis: 29600 km
RCS: Unknown
Launch date: September 17, 2024
Source: European Space Agency (ESA)
Launch site: AIR FORCE EASTERN TEST RANGE (AFETR)
Your satellite tracking list
Your tracking list is empty




NASA's NSSDC Master Catalog

Two Line Element Set (TLE):
1 61182U 24167A   26010.80494384  .00000067  00000-0  00000-0 0  9990
2 61182  55.2321 225.6317 0001771 188.3607   9.6826  1.70473658  8193
Source of the keplerian elements: AFSPC